Wind_Speed
17 18 18 18 18 18 19 19 16 11 9 8 9 11 11 10 12 13 13 14 14 15 17 17 16 16 16 17 18 19 19 19 19 20 19 19 18 16 13 11 9 9 10
19 19 20 19 18 17 18 18 14 12 10 9 9 9 9 9 12 13 14 15 14 15 15 15 15 15 17 19 20 21 22 23 23 23 22 21 20 17 16 14 11 10 10
20 20 21 19 18 17 18 16 14 12 12 10 10 9 9 9 12 15 17 17 16 15 15 14 15 15 17 19 22 23 25 26 25 25 24 24 22 20 19 18 16 14 13
20 19 19 18 18 18 18 16 13 13 12 11 10 9 9 9 11 15 19 19 18 17 16 17 18 18 19 20 22 25 27 28 27 28 28 28 25 23 23 23 22 20 18
21 19 17 17 18 18 18 15 12 12 12 12 12 11 11 11 10 12 17 18 19 20 20 21 22 22 23 24 25 26 27 29 29 30 29 28 26 26 26 25 25 24 23
20 18 17 17 19 19 17 13 12 12 12 12 13 13 13 13 13 13 14 16 19 21 22 23 23 24 25 27 28 28 28 27 29 29 27 27 27 28 29 29 28 28 28
18 17 18 18 19 19 16 12 12 12 12 12 13 13 13 14 15 17 17 18 20 21 22 23 24 24 25 26 27 27 28 27 28 27 26 26 28 30 31 33 33 33 33
17 18 19 20 20 19 16 13 13 11 11 11 11 11 12 14 15 16 18 20 21 23 24 26 27 28 28 28 28 28 29 29 29 29 30 30 30 32 34 36 37 38 38
16 17 20 22 22 20 17 15 14 13 11 10 8 7 8 9 10 12 15 17 20 22 24 26 27 29 30 31 31 31 31 32 33 33 34 34 35 36 38 39 40 41 42
17 18 21 23 22 22 20 18 16 14 13 12 10 9 12 12 13 13 14 15 17 19 21 23 25 27 29 31 32 33 33 34 35 35 37 37 38 39 40 41 42 44 46
18 20 22 25 24 24 23 21 19 17 16 14 12 12 14 15 18 18 19 19 20 21 22 23 24 26 28 30 32 33 34 35 35 36 38 39 41 42 43 42 42 43 42
21 21 23 25 27 26 25 23 22 20 19 17 15 15 18 21 23 24 24 24 25 25 27 27 27 28 29 31 33 34 35 36 37 38 39 40 40 40 39 37 36 34 34
22 22 23 25 27 27 26 25 24 21 20 20 20 22 25 29 29 30 31 29 29 30 31 32 32 33 34 35 36 36 36 36 36 37 37 37 36 36 35 34 34 34 36
24 22 22 24 26 26 27 27 25 24 23 23 24 25 27 29 30 32 35 34 33 33 34 34 35 36 36 35 35 35 35 35 34 34 34 34 35 36 37 37 38 39 40
26 25 24 23 24 26 28 29 27 28 28 26 25 26 28 29 30 33 35 35 34 34 33 33 34 35 34 33 32 31 30 31 31 33 34 35 36 38 39 40 41 42 43
27 27 27 26 24 23 25 27 28 31 30 29 29 29 30 31 30 31 30 29 28 31 31 31 34 35 34 32 32 32 32 33 34 36 37 38 39 39 40 42 43 44 46
28 28 27 27 25 22 23 25 27 30 30 28 29 30 30 31 29 25 27 26 26 29 30 32 35 37 36 35 34 35 36 37 38 39 40 40 41 41 43 44 45 46 48
27 27 25 25 24 22 23 24 23 26 26 26 28 29 31 30 25 26 27 27 29 31 33 37 40 40 37 36 35 36 38 39 40 41 41 42 43 44 45 46 48 50 52
28 27 25 23 22 22 22 22 22 23 23 25 27 29 30 27 26 29 30 32 34 35 39 42 43 41 39 38 37 39 40 41 42 42 43 45 46 48 49 52 54 57 60
28 27 24 21 22 23 22 21 22 23 25 27 29 30 29 29 30 32 34 36 38 40 42 44 45 44 42 39 39 40 42 42 43 45 47 49 51 53 56 59 61 64 66
28 26 23 19 23 25 23 22 22 25 27 29 31 31 30 29 32 35 37 39 42 43 44 46 45 43 42 40 40 42 44 46 47 49 52 55 57 60 63 65 67 69 71
28 25 24 21 23 26 25 24 25 27 28 30 29 28 28 30 34 37 40 41 43 44 44 41 39 39 41 42 43 45 46 48 51 54 57 59 62 64 66 68 70 71 73
28 27 26 24 24 26 27 27 28 29 29 27 26 27 31 35 38 40 41 42 42 40 37 37 39 41 44 47 49 51 53 54 55 56 59 62 64 65 67 68 70 71 72
28 28 28 27 26 27 29 30 30 29 28 28 29 32 37 39 39 41 42 41 38 37 38 40 43 45 47 50 54 59 62 65 66 65 63 64 66 67 68 68 69 71 73
27 28 29 29 29 30 31 31 30 28 28 30 33 37 39 40 41 42 40 38 39 39 41 44 47 49 52 55 58 61 64 67 71 73 71 69 67 67 68 70 73 76 80
27 27 28 29 30 30 32 31 29 29 31 33 36 39 39 40 41 39 38 39 41 42 44 46 49 53 56 59 62 65 67 68 68 69 70 71 74 75 76 77 81 86 89
Wind_Direction
274 278 278 281 286 290 294 298 303 312 319 320 321 316 308 285 265 264 261 261 259 254 251 252 253 255 257 257 257 259 260 267 272 273 273 273 269 264 266 273 291 303 294
274 282 286 287 288 289 292 298 307 316 311 307 307 307 305 284 266 261 258 257 256 253 250 251 255 257 255 254 256 258 261 265 268 269 273 276 272 265 264 264 271 281 290
274 282 286 288 287 287 290 294 300 307 305 298 295 290 293 284 261 256 255 252 250 247 245 247 253 256 256 255 257 261 264 266 264 264 267 269 267 263 264 264 266 270 274
272 275 280 282 281 281 284 288 296 302 299 294 293 288 289 289 272 253 251 251 252 250 251 256 260 261 261 263 265 266 265 263 260 261 264 265 262 262 262 264 267 268 270
275 278 276 273 272 276 279 283 291 295 298 295 290 286 283 286 288 269 255 253 256 256 258 262 266 269 269 269 269 270 268 265 263 264 266 266 261 260 261 262 266 267 270
272 278 273 265 265 268 271 276 286 290 292 296 294 287 280 276 277 280 274 265 262 264 267 269 271 273 273 272 272 272 271 269 268 269 269 267 259 257 259 261 263 266 269
266 268 265 259 257 262 264 267 275 283 290 294 294 291 284 275 273 274 276 275 273 274 275 276 278 279 280 279 277 275 273 273 272 271 268 266 263 260 258 261 265 267 269
267 266 261 254 253 256 256 255 263 274 285 292 294 296 287 281 279 277 277 277 275 275 276 276 278 278 279 279 279 279 278 276 273 270 268 267 266 266 264 263 265 268 271
268 265 256 251 251 251 249 247 253 261 268 279 294 309 312 310 302 295 289 285 282 281 280 279 278 277 276 276 276 276 276 275 273 272 271 270 269 268 268 268 269 270 272
266 262 254 247 246 246 244 242 248 257 258 264 281 300 307 314 317 315 307 300 296 291 288 286 283 281 278 276 274 273 273 273 272 273 273 274 274 274 275 276 276 276 275
269 269 256 246 243 243 242 241 243 252 254 260 276 286 292 299 303 306 303 299 295 294 293 291 289 286 284 281 278 276 275 275 276 278 279 280 280 280 279 278 277 276 275
270 271 264 256 247 243 241 241 241 248 251 258 270 279 288 293 298 300 299 297 296 294 293 293 292 290 289 286 282 279 277 277 278 279 280 281 281 280 279 279 279 279 278
264 265 266 264 255 249 245 243 241 247 254 259 268 279 284 288 293 299 299 297 295 292 290 290 291 291 292 291 286 282 279 278 278 280 281 282 283 283 283 282 281 279 277
260 264 264 266 262 257 252 246 245 251 256 260 267 275 283 289 294 297 294 292 292 293 292 293 296 297 297 295 290 286 285 284 283 282 282 282 283 283 281 280 279 278 277
259 265 266 263 261 260 258 252 251 253 257 262 270 279 287 294 298 297 293 291 289 291 293 295 298 299 300 297 292 290 287 284 283 283 282 281 280 279 280 280 279 278 277
256 261 266 263 258 256 256 253 253 255 260 268 275 282 289 294 298 301 297 294 290 288 291 296 300 300 298 294 292 290 288 287 286 286 285 283 281 280 277 275 275 275 276
252 258 264 265 261 255 253 252 254 256 262 273 280 285 291 296 300 300 301 300 295 293 296 299 302 303 298 293 290 288 287 286 286 285 284 284 283 282 281 281 281 279 279
249 254 261 265 259 251 252 257 260 262 269 278 284 289 295 299 299 300 301 301 299 297 298 301 303 301 298 294 291 288 286 285 284 284 283 283 283 283 284 284 283 283 283
247 253 262 264 253 247 250 257 263 267 274 282 290 295 297 296 297 298 298 299 298 297 299 302 301 298 296 292 289 287 286 286 285 285 284 284 284 284 284 284 284 284 284
245 251 259 261 245 243 251 260 265 271 278 287 293 298 295 290 289 292 294 296 295 296 297 298 296 293 292 290 288 287 286 285 285 285 286 287 287 287 286 286 286 286 286
245 249 254 253 238 241 253 262 267 275 282 290 293 294 293 290 288 290 294 296 296 296 296 295 293 291 291 290 289 289 290 290 290 290 290 290 290 290 291 291 291 290 289
243 248 252 252 243 245 255 261 268 276 285 292 296 293 293 294 294 297 299 297 297 297 296 295 294 293 292 291 291 289 289 291 292 293 293 293 293 293 293 291 290 289 289
244 247 252 254 254 252 255 261 269 277 284 293 298 297 298 299 298 298 298 298 299 299 298 297 297 296 297 297 296 295 293 292 291 291 291 291 291 291 290 289 289 289 290
242 246 252 252 256 256 257 261 268 275 284 291 294 296 297 297 296 297 299 300 300 299 299 299 299 299 299 300 301 301 301 300 298 295 293 292 292 292 292 293 294 294 293
241 245 249 250 255 257 258 262 267 274 282 288 291 293 294 296 297 298 298 299 299 300 301 302 303 303 302 302 301 301 300 300 299 299 298 296 296 295 296 296 297 297 297
240 244 248 249 253 256 258 261 265 273 281 286 290 292 293 295 296 295 296 298 299 301 303 304 304 303 303 302 302 302 301 300 299 300 300 300 299 299 299 300 300 300 301
Height
5858 5858 5857 5857 5856 5855 5856 5855 5853 5852 5850 5849 5849 5848 5848 5848 5849 5849 5849 5849 5849 5849 5849 5850 5850 5849 5849 5850 5849 5849 5848 5847 5846 5845 5845 5843 5841 5841 5839 5839 5837 5835 5835
5855 5855 5854 5853 5853 5853 5853 5852 5850 5849 5848 5847 5846 5846 5846 5846 5847 5847 5847 5846 5846 5846 5846 5846 5846 5845 5845 5845 5845 5844 5844 5843 5842 5842 5841 5839 5838 5837 5836 5835 5834 5833 5832
5851 5851 5852 5851 5850 5850 5850 5849 5848 5847 5847 5846 5845 5845 5844 5843 5844 5844 5844 5843 5842 5842 5842 5842 5842 5841 5840 5840 5840 5839 5840 5838 5838 5837 5837 5835 5834 5833 5832 5832 5832 5830 5829
5848 5849 5849 5848 5846 5847 5847 5847 5847 5846 5845 5844 5843 5843 5842 5841 5841 5841 5840 5839 5840 5839 5839 5838 5839 5837 5837 5837 5836 5836 5835 5834 5833 5833 5832 5830 5830 5830 5829 5828 5828 5826 5826
5845 5845 5845 5844 5843 5843 5844 5845 5844 5844 5843 5842 5842 5840 5840 5840 5839 5837 5836 5837 5837 5837 5837 5836 5835 5834 5834 5833 5832 5831 5830 5828 5829 5828 5827 5826 5826 5825 5825 5823 5823 5821 5821
5842 5842 5842 5841 5841 5841 5842 5843 5842 5842 5841 5840 5839 5838 5838 5838 5837 5834 5834 5834 5834 5834 5834 5833 5832 5831 5830 5829 5828 5827 5826 5824 5824 5823 5822 5821 5820 5820 5819 5818 5817 5816 5815
5838 5839 5839 5838 5837 5838 5839 5840 5840 5840 5839 5837 5837 5836 5836 5836 5834 5833 5832 5832 5832 5831 5831 5830 5828 5827 5827 5825 5823 5822 5821 5820 5820 5818 5817 5816 5815 5814 5814 5813 5811 5810 5810
5835 5835 5835 5835 5835 5835 5837 5837 5837 5838 5837 5835 5835 5834 5834 5834 5832 5830 5830 5829 5829 5828 5827 5826 5825 5824 5822 5821 5819 5818 5817 5816 5815 5813 5812 5811 5810 5808 5807 5806 5805 5804 5803
5832 5833 5832 5832 5832 5833 5834 5834 5834 5834 5835 5834 5833 5833 5833 5831 5829 5828 5827 5825 5824 5823 5822 5821 5820 5818 5817 5815 5814 5812 5811 5810 5808 5806 5805 5804 5803 5802 5801 5799 5798 5796 5795
5828 5830 5829 5829 5830 5831 5831 5831 5831 5832 5832 5833 5831 5831 5831 5829 5827 5825 5824 5822 5820 5819 5817 5816 5814 5812 5811 5810 5808 5806 5804 5803 5801 5799 5798 5796 5795 5794 5793 5791 5789 5787 5785
5825 5825 5826 5825 5826 5827 5827 5828 5828 5829 5830 5829 5828 5828 5827 5825 5824 5822 5821 5818 5816 5814 5813 5812 5809 5807 5805 5803 5802 5800 5798 5796 5794 5792 5790 5789 5787 5785 5783 5781 5779 5777 5775
5822 5821 5821 5822 5822 5822 5822 5823 5825 5826 5826 5825 5825 5825 5823 5821 5820 5819 5817 5814 5812 5810 5809 5807 5805 5802 5800 5797 5795 5793 5790 5788 5786 5784 5782 5780 5778 5776 5774 5772 5769 5768 5767
5818 5818 5817 5817 5818 5818 5819 5820 5821 5822 5822 5822 5821 5820 5819 5818 5817 5814 5811 5809 5807 5805 5804 5802 5799 5796 5794 5790 5787 5785 5783 5781 5778 5776 5774 5771 5769 5766 5765 5764 5762 5759 5758
5811 5813 5814 5813 5813 5814 5815 5817 5818 5818 5818 5818 5818 5817 5815 5815 5812 5809 5806 5803 5801 5800 5798 5795 5792 5789 5786 5782 5780 5778 5775 5773 5770 5768 5766 5764 5761 5759 5757 5755 5753 5752 5752
5805 5807 5808 5809 5809 5809 5810 5812 5813 5813 5814 5814 5813 5812 5811 5810 5807 5803 5800 5797 5795 5794 5792 5789 5787 5783 5779 5776 5773 5771 5768 5765 5763 5761 5759 5757 5754 5752 5749 5747 5745 5743 5741
5800 5800 5801 5802 5804 5805 5806 5807 5807 5808 5809 5809 5809 5807 5806 5804 5801 5797 5794 5792 5789 5787 5785 5783 5779 5776 5773 5770 5767 5764 5762 5759 5757 5754 5751 5749 5746 5744 5741 5739 5736 5734 5731
5795 5794 5795 5796 5798 5801 5801 5802 5802 5802 5803 5803 5804 5802 5800 5797 5794 5791 5789 5787 5784 5782 5779 5776 5772 5769 5766 5763 5760 5757 5754 5752 5750 5747 5744 5740 5738 5735 5732 5729 5726 5724 5721
5790 5790 5790 5791 5793 5795 5796 5796 5797 5797 5798 5798 5797 5796 5793 5789 5786 5784 5783 5781 5778 5775 5772 5769 5766 5762 5759 5756 5752 5749 5746 5744 5741 5738 5735 5732 5729 5725 5722 5719 5715 5712 5710
5784 5785 5785 5786 5787 5789 5790 5790 5791 5792 5792 5791 5790 5789 5786 5782 5780 5778 5776 5773 5771 5768 5765 5761 5758 5754 5751 5748 5745 5742 5738 5735 5732 5729 5725 5722 5718 5715 5712 5708 5704 5700 5696
5778 5779 5781 5781 5783 5784 5784 5785 5786 5786 5785 5784 5783 5781 5778 5775 5773 5771 5769 5766 5763 5760 5757 5753 5749 5745 5743 5740 5737 5733 5729 5726 5723 5720 5715 5711 5707 5703 5699 5694 5690 5685 5680
5771 5773 5775 5777 5778 5779 5779 5780 5780 5780 5779 5778 5776 5773 5771 5769 5767 5764 5762 5758 5755 5751 5747 5743 5739 5735 5732 5730 5728 5724 5720 5716 5713 5709 5704 5699 5694 5690 5684 5678 5672 5667 5661
5765 5767 5768 5771 5772 5773 5774 5774 5774 5774 5773 5771 5768 5767 5764 5762 5760 5757 5754 5750 5746 5741 5737 5733 5729 5726 5721 5719 5717 5715 5713 5709 5704 5698 5692 5686 5681 5676 5669 5662 5656 5649 5643
5758 5760 5762 5764 5766 5767 5768 5768 5768 5768 5767 5764 5762 5760 5757 5755 5752 5748 5745 5741 5736 5731 5727 5723 5720 5717 5712 5707 5703 5700 5698 5695 5694 5691 5683 5675 5668 5662 5655 5647 5640 5633 5626
5752 5754 5757 5758 5759 5761 5762 5762 5761 5761 5759 5757 5755 5753 5750 5747 5744 5740 5735 5731 5726 5722 5718 5714 5710 5706 5702 5697 5691 5684 5678 5673 5669 5669 5668 5660 5653 5646 5638 5630 5622 5614 5606
5745 5748 5750 5751 5752 5754 5755 5755 5755 5753 5752 5749 5747 5745 5742 5738 5734 5730 5726 5721 5718 5713 5709 5704 5700 5695 5690 5685 5680 5674 5666 5658 5648 5642 5640 5638 5633 5627 5620 5612 5602 5592 5583
5739 5741 5743 5745 5746 5747 5748 5748 5747 5746 5744 5742 5739 5736 5732 5729 5725 5721 5717 5713 5709 5705 5700 5695 5690 5684 5678 5670 5664 5657 5650 5642 5635 5627 5621 5615 5608 5602 5595 5588 5578 5567 5557